QPF
0.00 0.01 0.02 0.02 0.02 0.03 0.03 0.04 0.04 0.03 0.03 0.04 0.04 0.05 0.04 0.04 0.03 0.03 0.04 0.04 0.04 0.05 0.06 0.07 0.16 0.22 0.12 0.11 0.10 0.07 0.04 0.03 0.03 0.04 0.04 0.03 0.04 0.05 0.04 0.03 0.02 0.02 0.03
0.00 0.00 0.02 0.02 0.02 0.02 0.03 0.03 0.04 0.05 0.04 0.04 0.05 0.06 0.06 0.05 0.04 0.03 0.03 0.04 0.05 0.06 0.06 0.06 0.11 0.26 0.23 0.17 0.10 0.06 0.03 0.02 0.01 0.02 0.02 0.03 0.04 0.05 0.03 0.02 0.02 0.02 0.03
0.00 0.00 0.01 0.01 0.02 0.02 0.02 0.02 0.04 0.06 0.05 0.04 0.04 0.05 0.09 0.07 0.05 0.04 0.04 0.04 0.05 0.05 0.06 0.05 0.05 0.12 0.17 0.15 0.08 0.04 0.03 0.01 0.01 0.01 0.02 0.02 0.04 0.05 0.03 0.02 0.02 0.02 0.02
0.00 0.00 0.00 0.02 0.03 0.02 0.02 0.03 0.04 0.04 0.06 0.04 0.04 0.04 0.06 0.06 0.05 0.04 0.04 0.04 0.05 0.05 0.05 0.05 0.05 0.05 0.06 0.07 0.05 0.03 0.03 0.01 0.01 0.01 0.01 0.01 0.03 0.05 0.04 0.03 0.02 0.02 0.02
0.00 0.00 0.01 0.02 0.02 0.03 0.03 0.03 0.04 0.04 0.05 0.03 0.04 0.04 0.04 0.04 0.04 0.03 0.03 0.04 0.05 0.06 0.05 0.05 0.04 0.04 0.03 0.03 0.02 0.02 0.01 0.01 0.01 0.01 0.01 0.01 0.02 0.05 0.04 0.03 0.03 0.02 0.02
0.00 0.00 0.01 0.02 0.02 0.04 0.04 0.03 0.04 0.05 0.05 0.03 0.02 0.03 0.04 0.03 0.03 0.02 0.03 0.03 0.04 0.05 0.07 0.05 0.04 0.02 0.02 0.03 0.03 0.01 0.01 0.01 0.01 0.01 0.02 0.02 0.02 0.03 0.03 0.03 0.02 0.02 0.02
0.01 0.00 0.01 0.03 0.03 0.05 0.05 0.07 0.06 0.06 0.05 0.03 0.02 0.02 0.03 0.03 0.02 0.02 0.03 0.04 0.05 0.05 0.06 0.07 0.04 0.02 0.01 0.02 0.02 0.02 0.01 0.01 0.01 0.01 0.02 0.02 0.03 0.03 0.03 0.03 0.02 0.02 0.03
0.01 0.01 0.01 0.02 0.04 0.05 0.05 0.07 0.10 0.10 0.07 0.05 0.04 0.03 0.03 0.02 0.02 0.02 0.02 0.03 0.05 0.05 0.06 0.08 0.04 0.02 0.01 0.01 0.01 0.01 0.01 0.02 0.02 0.02 0.03 0.03 0.05 0.05 0.04 0.03 0.02 0.02 0.02
0.01 0.01 0.01 0.02 0.03 0.03 0.04 0.04 0.07 0.10 0.10 0.08 0.05 0.04 0.04 0.03 0.01 0.02 0.02 0.03 0.05 0.05 0.04 0.05 0.04 0.02 0.02 0.01 0.01 0.01 0.01 0.02 0.01 0.02 0.03 0.04 0.05 0.06 0.05 0.04 0.03 0.02 0.02
0.01 0.01 0.02 0.03 0.03 0.03 0.02 0.03 0.04 0.05 0.06 0.07 0.05 0.04 0.04 0.04 0.02 0.01 0.02 0.03 0.06 0.06 0.06 0.04 0.03 0.02 0.02 0.01 0.00 0.00 0.00 0.01 0.01 0.01 0.01 0.02 0.03 0.04 0.05 0.03 0.03 0.03 0.03
0.01 0.01 0.02 0.03 0.03 0.02 0.01 0.03 0.05 0.05 0.06 0.06 0.05 0.04 0.04 0.03 0.02 0.01 0.01 0.02 0.05 0.08 0.09 0.06 0.03 0.02 0.02 0.01 0.01 0.00 0.00 0.00 0.01 0.01 0.01 0.02 0.03 0.04 0.05 0.04 0.03 0.03 0.02
0.02 0.01 0.01 0.03 0.03 0.03 0.02 0.02 0.03 0.04 0.06 0.06 0.06 0.05 0.03 0.03 0.03 0.02 0.02 0.03 0.04 0.08 0.10 0.07 0.04 0.02 0.02 0.01 0.01 0.00 0.00 0.00 0.01 0.01 0.01 0.02 0.05 0.08 0.08 0.06 0.04 0.04 0.03
0.02 0.02 0.01 0.02 0.03 0.03 0.03 0.02 0.02 0.02 0.04 0.06 0.06 0.06 0.05 0.04 0.04 0.04 0.03 0.04 0.06 0.08 0.09 0.08 0.05 0.02 0.01 0.01 0.01 0.01 0.00 0.00 0.01 0.01 0.02 0.03 0.08 0.11 0.11 0.09 0.06 0.05 0.03
0.01 0.02 0.03 0.02 0.02 0.03 0.04 0.03 0.03 0.03 0.03 0.03 0.04 0.05 0.05 0.05 0.04 0.04 0.04 0.04 0.06 0.09 0.10 0.10 0.09 0.04 0.01 0.01 0.01 0.01 0.00 0.00 0.00 0.01 0.02 0.05 0.09 0.11 0.12 0.12 0.11 0.08 0.04
0.01 0.01 0.02 0.03 0.02 0.02 0.04 0.05 0.04 0.04 0.03 0.02 0.02 0.02 0.03 0.03 0.03 0.03 0.03 0.04 0.06 0.08 0.10 0.12 0.14 0.10 0.04 0.02 0.01 0.01 0.01 0.01 0.00 0.01 0.03 0.05 0.07 0.09 0.13 0.14 0.13 0.10 0.06
0.01 0.01 0.01 0.03 0.03 0.02 0.03 0.03 0.04 0.04 0.04 0.03 0.02 0.02 0.02 0.02 0.03 0.02 0.02 0.02 0.04 0.06 0.08 0.12 0.13 0.12 0.08 0.03 0.02 0.02 0.01 0.01 0.01 0.02 0.03 0.07 0.08 0.09 0.13 0.15 0.11 0.09 0.08
0.01 0.01 0.01 0.02 0.03 0.03 0.03 0.03 0.03 0.04 0.04 0.03 0.03 0.03 0.02 0.01 0.02 0.03 0.03 0.02 0.02 0.04 0.07 0.09 0.12 0.11 0.09 0.05 0.02 0.02 0.01 0.01 0.01 0.02 0.04 0.07 0.11 0.11 0.12 0.13 0.11 0.09 0.09
0.00 0.01 0.01 0.01 0.02 0.03 0.04 0.03 0.02 0.02 0.03 0.03 0.03 0.03 0.03 0.02 0.02 0.03 0.04 0.03 0.02 0.03 0.05 0.06 0.10 0.12 0.11 0.08 0.04 0.02 0.02 0.01 0.01 0.02 0.03 0.07 0.10 0.10 0.10 0.13 0.13 0.11 0.11
0.00 0.01 0.01 0.01 0.01 0.02 0.03 0.03 0.03 0.03 0.02 0.02 0.03 0.03 0.03 0.04 0.03 0.03 0.03 0.04 0.04 0.03 0.04 0.05 0.07 0.11 0.12 0.10 0.06 0.03 0.03 0.02 0.02 0.01 0.02 0.04 0.06 0.07 0.07 0.10 0.12 0.11 0.10
0.00 0.01 0.01 0.01 0.01 0.02 0.02 0.03 0.03 0.04 0.03 0.02 0.02 0.02 0.03 0.03 0.04 0.05 0.05 0.05 0.04 0.04 0.04 0.04 0.06 0.09 0.12 0.12 0.10 0.07 0.04 0.03 0.03 0.02 0.01 0.02 0.04 0.04 0.04 0.05 0.07 0.07 0.06
0.01 0.01 0.01 0.01 0.02 0.02 0.02 0.03 0.03 0.04 0.04 0.02 0.02 0.02 0.02 0.02 0.03 0.04 0.05 0.06 0.06 0.06 0.05 0.04 0.05 0.08 0.13 0.14 0.14 0.13 0.10 0.07 0.06 0.04 0.02 0.02 0.02 0.03 0.02 0.02 0.03 0.04 0.04
0.01 0.02 0.02 0.02 0.02 0.02 0.03 0.03 0.03 0.03 0.03 0.03 0.02 0.01 0.01 0.01 0.02 0.03 0.04 0.04 0.05 0.05 0.06 0.06 0.06 0.07 0.10 0.14 0.15 0.15 0.13 0.11 0.09 0.07 0.05 0.03 0.03 0.03 0.03 0.02 0.02 0.02 0.02
0.02 0.03 0.03 0.03 0.04 0.04 0.04 0.04 0.04 0.04 0.03 0.03 0.03 0.02 0.01 0.01 0.01 0.02 0.03 0.04 0.05 0.05 0.05 0.05 0.06 0.06 0.07 0.10 0.13 0.14 0.12 0.09 0.08 0.07 0.06 0.05 0.04 0.03 0.03 0.03 0.02 0.02 0.02
0.02 0.02 0.03 0.03 0.03 0.05 0.06 0.06 0.05 0.05 0.04 0.03 0.03 0.02 0.01 0.01 0.01 0.02 0.03 0.03 0.04 0.06 0.06 0.06 0.05 0.07 0.07 0.08 0.11 0.12 0.10 0.07 0.05 0.06 0.06 0.06 0.06 0.05 0.04 0.03 0.03 0.03 0.02
0.01 0.01 0.01 0.02 0.02 0.03 0.04 0.06 0.07 0.06 0.05 0.04 0.03 0.02 0.02 0.01 0.01 0.01 0.02 0.03 0.04 0.06 0.07 0.09 0.08 0.07 0.08 0.09 0.11 0.11 0.10 0.07 0.05 0.04 0.05 0.05 0.06 0.05 0.05 0.04 0.04 0.03 0.03
0.01 0.01 0.01 0.01 0.01 0.02 0.02 0.05 0.07 0.07 0.07 0.06 0.04 0.03 0.02 0.02 0.01 0.02 0.02 0.02 0.03 0.05 0.07 0.08 0.09 0.10 0.10 0.09 0.10 0.10 0.09 0.08 0.06 0.04 0.04 0.04 0.05 0.05 0.05 0.05 0.04 0.04 0.03
MSLP
1020.68 1020.15 1019.61 1019.14 1018.79 1018.60 1018.56 1018.64 1018.80 1018.99 1019.17 1019.33 1019.47 1019.60 1019.74 1019.91 1020.10 1020.30 1020.50 1020.67 1020.78 1020.85 1020.86 1020.85 1020.83 1020.82 1020.83 1020.85 1020.88 1020.88 1020.83 1020.72 1020.53 1020.29 1020.01 1019.71 1019.44 1019.20 1019.00 1018.83 1018.69 1018.56 1018.44
1020.80 1020.19 1019.56 1019.01 1018.61 1018.38 1018.33 1018.43 1018.63 1018.88 1019.14 1019.39 1019.62 1019.86 1020.10 1020.36 1020.63 1020.89 1021.14 1021.33 1021.45 1021.51 1021.50 1021.47 1021.42 1021.39 1021.39 1021.40 1021.43 1021.42 1021.37 1021.26 1021.08 1020.83 1020.56 1020.27 1020.00 1019.76 1019.57 1019.41 1019.28 1019.15 1019.03
1020.93 1020.24 1019.54 1018.92 1018.48 1018.23 1018.18 1018.30 1018.54 1018.84 1019.16 1019.48 1019.79 1020.10 1020.43 1020.76 1021.09 1021.41 1021.68 1021.89 1022.01 1022.05 1022.04 1021.98 1021.92 1021.88 1021.87 1021.89 1021.91 1021.92 1021.87 1021.76 1021.58 1021.35 1021.07 1020.79 1020.52 1020.30 1020.11 1019.96 1019.83 1019.72 1019.61
1021.09 1020.37 1019.62 1018.97 1018.50 1018.24 1018.19 1018.32 1018.58 1018.90 1019.26 1019.61 1019.97 1020.33 1020.70 1021.08 1021.45 1021.79 1022.08 1022.29 1022.42 1022.45 1022.43 1022.37 1022.31 1022.28 1022.28 1022.32 1022.36 1022.38 1022.35 1022.25 1022.08 1021.84 1021.56 1021.28 1021.01 1020.78 1020.59 1020.45 1020.34 1020.24 1020.15
1021.36 1020.62 1019.87 1019.22 1018.75 1018.49 1018.45 1018.57 1018.82 1019.13 1019.47 1019.82 1020.17 1020.54 1020.92 1021.31 1021.70 1022.05 1022.35 1022.56 1022.69 1022.73 1022.71 1022.66 1022.62 1022.62 1022.66 1022.73 1022.80 1022.85 1022.84 1022.75 1022.58 1022.33 1022.04 1021.74 1021.45 1021.20 1021.01 1020.88 1020.78 1020.71 1020.65
1021.75 1021.04 1020.32 1019.71 1019.27 1019.03 1018.98 1019.08 1019.29 1019.55 1019.84 1020.14 1020.45 1020.79 1021.15 1021.52 1021.91 1022.26 1022.56 1022.77 1022.90 1022.95 1022.95 1022.93 1022.93 1022.96 1023.05 1023.16 1023.28 1023.36 1023.37 1023.29 1023.11 1022.84 1022.52 1022.18 1021.87 1021.60 1021.39 1021.25 1021.16 1021.12 1021.08
1022.27 1021.64 1020.99 1020.45 1020.06 1019.85 1019.79 1019.86 1020.01 1020.20 1020.40 1020.63 1020.87 1021.15 1021.46 1021.81 1022.17 1022.52 1022.80 1023.02 1023.16 1023.22 1023.24 1023.26 1023.29 1023.37 1023.50 1023.66 1023.81 1023.92 1023.94 1023.86 1023.66 1023.37 1023.01 1022.63 1022.27 1021.96 1021.73 1021.58 1021.50 1021.47 1021.47
1022.89 1022.36 1021.83 1021.39 1021.07 1020.90 1020.85 1020.88 1020.96 1021.07 1021.18 1021.32 1021.48 1021.69 1021.96 1022.27 1022.60 1022.93 1023.20 1023.42 1023.55 1023.63 1023.66 1023.70 1023.76 1023.88 1024.04 1024.23 1024.41 1024.53 1024.56 1024.46 1024.25 1023.91 1023.51 1023.08 1022.67 1022.32 1022.05 1021.88 1021.79 1021.77 1021.80
1023.56 1023.16 1022.76 1022.44 1022.22 1022.10 1022.06 1022.07 1022.10 1022.13 1022.17 1022.22 1022.32 1022.47 1022.69 1022.96 1023.26 1023.56 1023.82 1024.01 1024.14 1024.20 1024.24 1024.29 1024.36 1024.49 1024.67 1024.87 1025.05 1025.17 1025.19 1025.08 1024.84 1024.47 1024.02 1023.54 1023.08 1022.67 1022.36 1022.16 1022.06 1022.04 1022.07
1024.21 1023.94 1023.69 1023.51 1023.39 1023.35 1023.34 1023.34 1023.34 1023.32 1023.31 1023.31 1023.36 1023.47 1023.65 1023.88 1024.15 1024.41 1024.64 1024.80 1024.89 1024.94 1024.96 1024.99 1025.06 1025.17 1025.34 1025.53 1025.71 1025.82 1025.82 1025.70 1025.43 1025.03 1024.54 1024.02 1023.50 1023.05 1022.69 1022.44 1022.31 1022.27 1022.29
1024.80 1024.67 1024.56 1024.51 1024.51 1024.54 1024.58 1024.60 1024.59 1024.56 1024.52 1024.50 1024.53 1024.61 1024.76 1024.97 1025.20 1025.42 1025.59 1025.71 1025.76 1025.77 1025.76 1025.75 1025.79 1025.88 1026.03 1026.20 1026.35 1026.44 1026.43 1026.29 1026.01 1025.59 1025.08 1024.52 1023.96 1023.46 1023.04 1022.74 1022.55 1022.47 1022.46
1025.31 1025.31 1025.33 1025.40 1025.50 1025.61 1025.70 1025.76 1025.78 1025.76 1025.73 1025.71 1025.74 1025.82 1025.95 1026.12 1026.30 1026.46 1026.58 1026.64 1026.64 1026.60 1026.55 1026.51 1026.51 1026.57 1026.68 1026.83 1026.96 1027.03 1027.01 1026.87 1026.58 1026.17 1025.65 1025.07 1024.48 1023.93 1023.45 1023.08 1022.82 1022.67 1022.60
1025.79 1025.88 1026.01 1026.18 1026.36 1026.53 1026.68 1026.77 1026.83 1026.84 1026.84 1026.86 1026.90 1026.97 1027.08 1027.22 1027.35 1027.45 1027.51 1027.50 1027.45 1027.36 1027.27 1027.20 1027.18 1027.21 1027.30 1027.41 1027.53 1027.59 1027.57 1027.44 1027.17 1026.77 1026.27 1025.69 1025.08 1024.48 1023.95 1023.50 1023.15 1022.91 1022.76
1026.25 1026.42 1026.63 1026.85 1027.09 1027.31 1027.49 1027.62 1027.72 1027.78 1027.82 1027.86 1027.92 1028.00 1028.09 1028.18 1028.26 1028.29 1028.28 1028.22 1028.12 1028.01 1027.89 1027.81 1027.77 1027.79 1027.87 1027.97 1028.08 1028.14 1028.14 1028.03 1027.79 1027.43 1026.95 1026.39 1025.77 1025.14 1024.55 1024.02 1023.57 1023.23 1022.98
1026.77 1026.98 1027.22 1027.48 1027.73 1027.97 1028.16 1028.33 1028.45 1028.55 1028.64 1028.71 1028.79 1028.86 1028.92 1028.97 1028.98 1028.96 1028.89 1028.78 1028.65 1028.52 1028.41 1028.33 1028.30 1028.33 1028.40 1028.51 1028.61 1028.69 1028.71 1028.63 1028.45 1028.13 1027.70 1027.17 1026.56 1025.92 1025.27 1024.67 1024.13 1023.67 1023.31
1027.38 1027.60 1027.84 1028.09 1028.33 1028.55 1028.74 1028.91 1029.06 1029.19 1029.30 1029.40 1029.49 1029.55 1029.58 1029.58 1029.53 1029.45 1029.33 1029.20 1029.06 1028.94 1028.85 1028.80 1028.79 1028.84 1028.93 1029.04 1029.16 1029.25 1029.29 1029.25 1029.12 1028.87 1028.49 1028.01 1027.44 1026.79 1026.12 1025.46 1024.84 1024.28 1023.82
1028.06 1028.27 1028.49 1028.71 1028.91 1029.10 1029.27 1029.43 1029.58 1029.73 1029.87 1029.98 1030.07 1030.11 1030.11 1030.06 1029.96 1029.83 1029.68 1029.54 1029.40 1029.31 1029.25 1029.23 1029.27 1029.34 1029.44 1029.56 1029.68 1029.79 1029.85 1029.85 1029.77 1029.59 1029.29 1028.87 1028.35 1027.73 1027.06 1026.37 1025.69 1025.06 1024.51
1028.78 1028.97 1029.15 1029.32 1029.47 1029.61 1029.75 1029.90 1030.05 1030.21 1030.36 1030.49 1030.57 1030.60 1030.56 1030.47 1030.33 1030.16 1029.99 1029.84 1029.72 1029.65 1029.64 1029.66 1029.72 1029.82 1029.93 1030.05 1030.17 1030.28 1030.36 1030.39 1030.36 1030.25 1030.03 1029.69 1029.24 1028.68 1028.04 1027.35 1026.65 1025.98 1025.37
1029.47 1029.64 1029.78 1029.89 1029.99 1030.09 1030.20 1030.33 1030.49 1030.65 1030.82 1030.95 1031.02 1031.03 1030.97 1030.84 1030.66 1030.47 1030.29 1030.14 1030.04 1030.00 1030.02 1030.08 1030.16 1030.26 1030.37 1030.48 1030.58 1030.68 1030.76 1030.83 1030.85 1030.80 1030.66 1030.41 1030.05 1029.57 1028.99 1028.34 1027.66 1026.97 1026.33
1030.08 1030.22 1030.32 1030.39 1030.44 1030.51 1030.60 1030.72 1030.88 1031.06 1031.23 1031.36 1031.43 1031.43 1031.34 1031.19 1030.99 1030.78 1030.59 1030.45 1030.36 1030.35 1030.38 1030.45 1030.54 1030.64 1030.73 1030.81 1030.89 1030.97 1031.05 1031.13 1031.19 1031.21 1031.15 1031.00 1030.74 1030.35 1029.86 1029.28 1028.64 1027.97 1027.33
1030.56 1030.67 1030.73 1030.77 1030.80 1030.85 1030.93 1031.05 1031.22 1031.40 1031.58 1031.72 1031.79 1031.78 1031.68 1031.51 1031.29 1031.07 1030.88 1030.74 1030.67 1030.66 1030.70 1030.77 1030.85 1030.93 1030.99 1031.04 1031.09 1031.15 1031.23 1031.32 1031.41 1031.48 1031.50 1031.44 1031.28 1031.00 1030.61 1030.11 1029.53 1028.91 1028.28
1030.92 1030.99 1031.03 1031.04 1031.06 1031.10 1031.19 1031.32 1031.49 1031.68 1031.87 1032.01 1032.08 1032.05 1031.95 1031.77 1031.55 1031.32 1031.13 1030.99 1030.92 1030.92 1030.95 1031.01 1031.08 1031.13 1031.16 1031.18 1031.20 1031.24 1031.31 1031.40 1031.52 1031.64 1031.73 1031.76 1031.69 1031.51 1031.21 1030.80 1030.30 1029.73 1029.12
1031.17 1031.22 1031.24 1031.24 1031.25 1031.29 1031.38 1031.51 1031.69 1031.88 1032.07 1032.20 1032.26 1032.24 1032.12 1031.95 1031.73 1031.51 1031.32 1031.19 1031.12 1031.11 1031.14 1031.18 1031.23 1031.26 1031.26 1031.26 1031.26 1031.28 1031.35 1031.45 1031.60 1031.75 1031.89 1031.99 1031.99 1031.90 1031.68 1031.35 1030.91 1030.39 1029.82
1031.41 1031.43 1031.42 1031.42 1031.42 1031.46 1031.55 1031.68 1031.84 1032.02 1032.18 1032.30 1032.35 1032.32 1032.21 1032.04 1031.83 1031.62 1031.45 1031.32 1031.25 1031.24 1031.26 1031.29 1031.32 1031.34 1031.33 1031.32 1031.31 1031.33 1031.40 1031.51 1031.67 1031.86 1032.03 1032.17 1032.23 1032.20 1032.04 1031.77 1031.39 1030.91 1030.37
1031.70 1031.69 1031.66 1031.64 1031.64 1031.66 1031.73 1031.83 1031.96 1032.11 1032.24 1032.33 1032.36 1032.32 1032.21 1032.05 1031.86 1031.67 1031.52 1031.40 1031.34 1031.33 1031.34 1031.37 1031.40 1031.40 1031.40 1031.38 1031.38 1031.41 1031.49 1031.61 1031.78 1031.98 1032.18 1032.34 1032.44 1032.44 1032.33 1032.10 1031.76 1031.32 1030.79
1032.10 1032.05 1032.00 1031.96 1031.93 1031.93 1031.96 1032.01 1032.09 1032.18 1032.26 1032.31 1032.31 1032.25 1032.15 1032.00 1031.84 1031.68 1031.55 1031.45 1031.40 1031.39 1031.41 1031.43 1031.46 1031.47 1031.47 1031.47 1031.48 1031.52 1031.60 1031.74 1031.92 1032.12 1032.32 1032.50 1032.61 1032.63 1032.55 1032.36 1032.04 1031.63 1031.12
Thickness
5685 5687 5690 5691 5693 5694 5696 5697 5698 5699 5701 5702 5702 5703 5704 5704 5705 5706 5706 5707 5708 5710 5711 5712 5713 5714 5715 5716 5715 5715 5715 5715 5716 5717 5717 5717 5718 5718 5719 5719 5720 5720 5721
5683 5685 5686 5688 5690 5691 5693 5694 5695 5696 5697 5698 5699 5700 5700 5701 5701 5702 5703 5703 5704 5705 5707 5708 5709 5710 5710 5711 5711 5711 5711 5711 5712 5712 5713 5713 5714 5714 5714 5715 5716 5716 5716
5680 5681 5683 5685 5686 5687 5689 5690 5691 5692 5693 5693 5694 5695 5696 5696 5697 5698 5699 5699 5700 5701 5702 5703 5705 5705 5705 5705 5705 5706 5706 5706 5707 5708 5709 5709 5709 5710 5710 5711 5711 5712 5712
5675 5677 5679 5681 5682 5683 5685 5686 5686 5687 5688 5688 5689 5690 5691 5691 5692 5693 5694 5695 5695 5696 5697 5699 5699 5700 5700 5700 5700 5700 5701 5701 5702 5703 5704 5704 5705 5705 5706 5706 5707 5707 5707
5670 5672 5674 5676 5678 5679 5680 5681 5681 5682 5682 5683 5684 5684 5685 5686 5687 5688 5688 5689 5690 5691 5692 5693 5694 5694 5695 5695 5695 5695 5696 5697 5697 5698 5699 5700 5700 5701 5701 5701 5702 5702 5703
5665 5666 5668 5670 5672 5673 5674 5675 5676 5676 5677 5678 5678 5678 5679 5680 5682 5682 5683 5684 5684 5685 5686 5687 5688 5688 5689 5690 5690 5690 5691 5692 5692 5693 5694 5695 5696 5696 5696 5697 5697 5697 5697
5658 5660 5662 5664 5665 5667 5668 5669 5670 5670 5671 5672 5672 5672 5673 5674 5675 5676 5677 5678 5678 5679 5680 5681 5682 5682 5683 5684 5685 5685 5685 5687 5687 5688 5689 5690 5691 5692 5692 5692 5692 5692 5692
5651 5652 5654 5656 5658 5659 5661 5662 5663 5664 5664 5665 5665 5666 5667 5667 5668 5669 5670 5671 5672 5673 5673 5674 5675 5676 5676 5677 5678 5679 5680 5681 5682 5682 5683 5684 5686 5686 5686 5686 5687 5687 5687
5643 5645 5646 5648 5650 5651 5653 5654 5655 5656 5657 5657 5658 5659 5659 5660 5661 5663 5663 5663 5665 5666 5666 5667 5668 5668 5669 5670 5672 5673 5673 5674 5675 5676 5677 5678 5679 5680 5681 5681 5681 5681 5681
5635 5637 5638 5640 5642 5643 5645 5646 5647 5648 5649 5649 5650 5651 5652 5652 5653 5655 5656 5656 5657 5658 5659 5659 5661 5662 5662 5663 5664 5665 5667 5668 5669 5670 5671 5672 5673 5674 5674 5674 5675 5675 5675
5627 5628 5630 5632 5634 5635 5637 5638 5639 5640 5641 5641 5642 5643 5644 5644 5645 5646 5647 5649 5649 5650 5651 5652 5653 5654 5655 5655 5656 5658 5659 5660 5662 5663 5664 5665 5666 5668 5668 5668 5668 5668 5668
5618 5620 5621 5623 5625 5627 5628 5629 5630 5631 5632 5633 5633 5634 5635 5635 5636 5637 5638 5639 5640 5641 5642 5643 5645 5647 5647 5647 5648 5650 5651 5652 5654 5655 5656 5658 5659 5661 5661 5661 5661 5661 5661
5609 5611 5612 5615 5616 5618 5619 5620 5621 5622 5623 5624 5625 5626 5626 5626 5627 5629 5629 5630 5631 5632 5633 5635 5636 5638 5639 5639 5640 5641 5642 5644 5645 5647 5649 5650 5652 5654 5654 5653 5653 5653 5653
5600 5602 5604 5606 5607 5609 5610 5610 5611 5612 5613 5614 5615 5617 5618 5618 5618 5618 5620 5621 5622 5623 5624 5626 5627 5629 5630 5631 5632 5633 5634 5635 5637 5639 5640 5643 5645 5646 5646 5645 5645 5645 5646
5592 5593 5594 5596 5598 5599 5600 5601 5602 5602 5603 5604 5605 5606 5608 5609 5608 5609 5610 5611 5612 5614 5615 5616 5618 5619 5621 5622 5623 5624 5625 5626 5628 5629 5631 5634 5636 5637 5637 5637 5637 5638 5638
5584 5584 5585 5586 5588 5589 5591 5591 5592 5592 5593 5593 5594 5596 5597 5598 5599 5600 5601 5601 5603 5604 5606 5607 5609 5610 5611 5612 5613 5614 5615 5617 5618 5620 5621 5624 5625 5627 5628 5628 5629 5629 5629
5575 5575 5576 5577 5578 5578 5579 5581 5581 5582 5582 5583 5583 5585 5586 5588 5589 5590 5591 5592 5593 5594 5596 5597 5598 5600 5601 5602 5603 5604 5605 5606 5608 5610 5611 5613 5615 5616 5617 5618 5619 5619 5620
5567 5567 5567 5567 5567 5568 5568 5569 5570 5571 5571 5572 5573 5574 5575 5577 5578 5579 5580 5581 5582 5584 5586 5587 5588 5589 5590 5591 5592 5593 5594 5596 5597 5599 5601 5602 5604 5605 5606 5607 5608 5609 5610
5558 5558 5558 5557 5557 5558 5558 5558 5558 5559 5560 5560 5561 5562 5563 5565 5567 5568 5569 5570 5572 5573 5575 5576 5577 5578 5579 5580 5580 5582 5583 5585 5586 5588 5590 5591 5592 5593 5595 5596 5597 5598 5599
5548 5548 5548 5547 5547 5547 5547 5547 5547 5547 5548 5548 5549 5550 5552 5553 5555 5557 5558 5559 5561 5562 5563 5565 5566 5567 5568 5569 5569 5569 5570 5572 5573 5575 5577 5579 5580 5581 5582 5584 5585 5586 5587
5538 5538 5538 5537 5537 5537 5536 5536 5535 5535 5535 5536 5537 5538 5540 5541 5543 5544 5546 5548 5549 5551 5552 5553 5554 5555 5555 5557 5557 5557 5558 5559 5560 5562 5564 5565 5566 5567 5569 5571 5573 5574 5575
5528 5528 5527 5527 5526 5526 5526 5525 5524 5524 5523 5524 5524 5526 5527 5529 5530 5532 5534 5536 5537 5538 5540 5541 5542 5543 5543 5545 5545 5545 5545 5547 5548 5549 5550 5552 5552 5554 5555 5557 5559 5561 5562
5518 5517 5517 5516 5515 5515 5514 5513 5512 5511 5511 5512 5512 5514 5515 5516 5518 5519 5521 5524 5525 5527 5528 5530 5531 5532 5531 5532 5533 5534 5534 5536 5534 5536 5537 5538 5538 5540 5542 5543 5545 5546 5548
5508 5506 5505 5504 5503 5502 5502 5501 5500 5500 5501 5501 5500 5501 5502 5504 5505 5507 5509 5511 5513 5514 5516 5518 5519 5520 5521 5520 5520 5520 5521 5523 5523 5523 5524 5524 5525 5527 5528 5529 5530 5532 5534
5497 5495 5494 5493 5491 5491 5490 5490 5489 5489 5489 5488 5488 5489 5490 5491 5493 5494 5496 5497 5499 5501 5503 5505 5506 5508 5509 5510 5509 5507 5507 5507 5510 5512 5512 5511 5511 5513 5514 5516 5517 5518 5520
5485 5483 5482 5481 5480 5479 5478 5478 5478 5477 5476 5476 5476 5477 5477 5478 5479 5481 5482 5484 5486 5488 5490 5491 5493 5494 5496 5497 5498 5497 5497 5496 5496 5497 5498 5498 5498 5499 5501 5502 5503 5504 5506